Location: Calvera
(42.3882°N, 0.6137°E)
Time: 19:17:33
(UTC+00:00)

Cosmos 2344 - Pass Details

Date: 28 October 2020
Orbit: 1246 x 2997 km, 63.3° (Epoch: 22 November)

Event Time Altitude Azimuth Distance (km) Brightness Sun altitude
Exits shadow 02:37:39 44° 51° (NE) 1,685 4.4 -42.1°
Drops below altitude 10° 02:42:46 10° 39° (NE) 3,387 6.3 -41.3°
Sets 02:45:46 0° 38° (NE) 4,489 7.1 -40.8°
